Total_Precipitation_Accumulation
0.03 0.09 0.26 0.31 0.32 0.29 0.27 0.26 0.24 0.22 0.24 0.26 0.28 0.30 0.31 0.29 0.27 0.23 0.24 0.24 0.25 0.27 0.32 0.37 0.38 0.37 0.33 0.31 0.26 0.19 0.14 0.12 0.12 0.12 0.10 0.11 0.13 0.13 0.13 0.14 0.16 0.18 0.23
0.03 0.10 0.26 0.31 0.34 0.31 0.30 0.29 0.26 0.22 0.24 0.31 0.36 0.36 0.31 0.28 0.27 0.25 0.21 0.21 0.23 0.26 0.34 0.39 0.33 0.26 0.19 0.14 0.11 0.09 0.09 0.08 0.06 0.03 0.02 0.03 0.05 0.08 0.08 0.08 0.11 0.14 0.16
0.03 0.10 0.25 0.33 0.34 0.32 0.29 0.26 0.24 0.22 0.27 0.35 0.41 0.40 0.34 0.26 0.24 0.24 0.21 0.21 0.23 0.26 0.29 0.30 0.24 0.18 0.14 0.13 0.09 0.05 0.04 0.04 0.03 0.02 0.01 0.03 0.05 0.06 0.06 0.06 0.08 0.10 0.13
0.05 0.10 0.22 0.33 0.34 0.32 0.31 0.29 0.28 0.28 0.30 0.35 0.42 0.42 0.37 0.31 0.30 0.28 0.25 0.21 0.20 0.21 0.20 0.22 0.18 0.13 0.10 0.08 0.06 0.04 0.04 0.03 0.02 0.02 0.04 0.04 0.04 0.07 0.08 0.08 0.11 0.12 0.14
0.12 0.15 0.25 0.33 0.36 0.34 0.33 0.30 0.31 0.33 0.35 0.39 0.42 0.42 0.36 0.34 0.33 0.31 0.27 0.21 0.19 0.18 0.17 0.18 0.15 0.10 0.07 0.05 0.05 0.04 0.04 0.04 0.02 0.02 0.03 0.05 0.06 0.09 0.12 0.12 0.15 0.17 0.15
0.19 0.26 0.34 0.37 0.38 0.39 0.37 0.35 0.33 0.35 0.40 0.43 0.45 0.44 0.37 0.37 0.39 0.34 0.28 0.19 0.16 0.17 0.17 0.17 0.15 0.11 0.08 0.06 0.05 0.04 0.04 0.04 0.02 0.02 0.03 0.05 0.06 0.11 0.13 0.14 0.18 0.19 0.19
0.26 0.35 0.44 0.46 0.47 0.45 0.45 0.47 0.44 0.44 0.47 0.51 0.53 0.50 0.44 0.41 0.41 0.36 0.29 0.18 0.15 0.15 0.16 0.15 0.16 0.14 0.11 0.09 0.07 0.06 0.05 0.04 0.02 0.02 0.02 0.04 0.06 0.11 0.14 0.17 0.19 0.21 0.22
0.49 0.56 0.64 0.64 0.59 0.53 0.49 0.49 0.48 0.51 0.56 0.57 0.55 0.55 0.52 0.47 0.44 0.40 0.31 0.22 0.19 0.18 0.20 0.18 0.17 0.15 0.13 0.11 0.09 0.07 0.05 0.03 0.02 0.02 0.02 0.03 0.07 0.14 0.16 0.16 0.18 0.20 0.21
0.92 0.94 0.89 0.81 0.71 0.66 0.57 0.51 0.50 0.51 0.57 0.61 0.60 0.59 0.55 0.51 0.48 0.43 0.35 0.27 0.24 0.24 0.24 0.20 0.17 0.15 0.15 0.13 0.11 0.08 0.05 0.04 0.02 0.02 0.02 0.03 0.07 0.15 0.20 0.21 0.24 0.24 0.24
1.29 1.32 1.23 1.08 0.92 0.82 0.72 0.58 0.53 0.53 0.54 0.57 0.57 0.53 0.46 0.43 0.43 0.40 0.31 0.28 0.27 0.27 0.24 0.19 0.17 0.17 0.14 0.13 0.12 0.09 0.06 0.05 0.03 0.03 0.03 0.05 0.11 0.22 0.26 0.26 0.29 0.28 0.26
1.56 1.56 1.54 1.37 1.15 0.98 0.84 0.62 0.57 0.57 0.57 0.54 0.52 0.44 0.43 0.43 0.41 0.34 0.25 0.20 0.22 0.25 0.23 0.21 0.19 0.18 0.15 0.13 0.13 0.11 0.09 0.06 0.04 0.03 0.05 0.08 0.16 0.23 0.24 0.24 0.24 0.22 0.21
1.71 1.67 1.67 1.58 1.37 1.18 1.01 0.81 0.72 0.63 0.61 0.55 0.47 0.45 0.40 0.41 0.44 0.37 0.32 0.25 0.22 0.23 0.22 0.23 0.22 0.21 0.18 0.15 0.13 0.11 0.11 0.09 0.08 0.06 0.06 0.07 0.12 0.19 0.21 0.20 0.19 0.19 0.18
1.90 1.85 1.83 1.79 1.59 1.36 1.12 0.90 0.78 0.69 0.66 0.61 0.51 0.46 0.46 0.47 0.48 0.49 0.48 0.40 0.34 0.26 0.26 0.26 0.27 0.22 0.19 0.18 0.17 0.13 0.12 0.12 0.11 0.08 0.06 0.06 0.10 0.19 0.24 0.24 0.21 0.21 0.21
2.04 1.91 1.93 1.92 1.77 1.58 1.33 1.09 0.85 0.71 0.68 0.66 0.59 0.54 0.58 0.53 0.48 0.47 0.47 0.43 0.42 0.33 0.31 0.28 0.25 0.22 0.20 0.18 0.18 0.19 0.18 0.17 0.16 0.15 0.12 0.08 0.08 0.13 0.20 0.26 0.28 0.29 0.29
2.01 1.97 1.97 1.88 1.78 1.70 1.59 1.35 1.03 0.82 0.73 0.72 0.72 0.66 0.64 0.61 0.54 0.53 0.49 0.46 0.40 0.38 0.35 0.31 0.27 0.26 0.24 0.22 0.20 0.20 0.20 0.19 0.18 0.19 0.17 0.12 0.10 0.10 0.16 0.22 0.31 0.37 0.40
1.79 1.91 1.95 1.87 1.71 1.59 1.56 1.52 1.30 0.99 0.81 0.79 0.78 0.74 0.71 0.69 0.63 0.58 0.54 0.53 0.47 0.43 0.39 0.37 0.35 0.35 0.32 0.31 0.25 0.21 0.20 0.19 0.17 0.17 0.16 0.16 0.15 0.13 0.13 0.20 0.30 0.39 0.50
1.54 1.74 1.86 1.94 1.86 1.65 1.55 1.56 1.50 1.30 1.03 0.85 0.81 0.82 0.77 0.71 0.66 0.64 0.62 0.55 0.50 0.51 0.51 0.52 0.50 0.49 0.43 0.39 0.34 0.32 0.29 0.26 0.24 0.21 0.19 0.18 0.19 0.19 0.18 0.20 0.28 0.39 0.53
1.39 1.54 1.70 1.78 1.87 1.79 1.64 1.60 1.57 1.45 1.28 1.08 0.91 0.83 0.80 0.76 0.75 0.75 0.73 0.67 0.62 0.62 0.63 0.62 0.60 0.59 0.50 0.45 0.42 0.41 0.39 0.36 0.32 0.30 0.29 0.27 0.24 0.22 0.21 0.23 0.28 0.37 0.49
1.28 1.41 1.60 1.63 1.71 1.83 1.88 1.82 1.68 1.57 1.42 1.27 1.12 0.93 0.86 0.87 0.87 0.83 0.75 0.74 0.76 0.72 0.69 0.69 0.64 0.61 0.55 0.51 0.51 0.48 0.44 0.41 0.37 0.35 0.36 0.36 0.35 0.33 0.31 0.30 0.28 0.27 0.34
1.28 1.39 1.55 1.59 1.71 1.88 2.06 2.06 1.97 1.77 1.55 1.43 1.25 1.07 0.98 0.96 0.99 0.92 0.83 0.83 0.84 0.79 0.70 0.67 0.67 0.67 0.60 0.61 0.60 0.53 0.49 0.46 0.42 0.38 0.37 0.37 0.37 0.37 0.37 0.35 0.33 0.31 0.31
1.39 1.41 1.52 1.62 1.72 1.82 1.90 1.83 1.77 1.71 1.63 1.56 1.45 1.32 1.19 1.12 1.14 1.12 1.01 0.95 0.95 0.89 0.81 0.82 0.88 0.84 0.77 0.79 0.73 0.57 0.48 0.46 0.44 0.41 0.39 0.37 0.35 0.34 0.33 0.33 0.33 0.33 0.33
1.40 1.42 1.53 1.63 1.69 1.70 1.75 1.85 1.83 1.92 1.89 1.85 1.79 1.64 1.48 1.36 1.33 1.30 1.25 1.20 1.15 1.06 1.00 0.98 1.01 0.97 0.92 0.95 0.92 0.83 0.61 0.47 0.39 0.37 0.38 0.37 0.38 0.37 0.35 0.34 0.34 0.34 0.32
1.27 1.48 1.56 1.60 1.66 1.70 1.89 2.25 2.22 2.14 2.08 2.00 1.92 1.85 1.70 1.60 1.54 1.43 1.38 1.40 1.35 1.24 1.14 1.12 1.10 1.09 1.09 1.10 1.06 1.08 0.85 0.59 0.45 0.39 0.35 0.33 0.36 0.40 0.42 0.42 0.39 0.36 0.32
1.08 1.35 1.63 1.70 1.77 1.89 2.08 2.31 2.37 2.13 1.94 1.89 1.90 1.91 1.89 1.71 1.65 1.60 1.55 1.50 1.49 1.44 1.31 1.27 1.27 1.23 1.21 1.18 1.14 1.03 0.95 0.80 0.71 0.54 0.40 0.36 0.35 0.35 0.39 0.42 0.42 0.41 0.41
1.00 1.19 1.46 1.67 1.75 1.92 2.06 2.19 2.37 2.16 1.88 1.86 1.92 1.88 1.89 1.82 1.66 1.60 1.56 1.48 1.39 1.37 1.38 1.38 1.36 1.32 1.22 1.13 1.08 1.03 0.97 0.83 0.70 0.66 0.51 0.38 0.36 0.32 0.32 0.36 0.40 0.43 0.45
0.89 1.01 1.19 1.38 1.46 1.58 1.75 1.93 2.12 2.15 2.02 1.89 1.81 1.77 1.74 1.74 1.71 1.64 1.59 1.49 1.36 1.27 1.23 1.27 1.31 1.30 1.27 1.19 1.10 1.04 1.01 0.93 0.79 0.75 0.70 0.54 0.47 0.39 0.35 0.35 0.38 0.41 0.45